Regional Weather Roundup
Issued by NWS

Home | Current Version | Previous Version | Text Only | Print | Product List | Glossary Off
Versions: 1 2 3 4 5 6 7 8 9 10 11 12 13 14 15 16 17 18 19 20 21 22 23 24 25 26 27 28 29 30 31 32 33 34 35 36 37 38 39 40 41 42 43 44 45 46 47 48 49 50

000
ASUS43 KLOT 301004
RWRIL

ILLINOIS REGIONAL WEATHER ROUNDUP
NATIONAL WEATHER SERVICE CHICAGO/ROMEOVILLE IL
500 AM CDT TUE AUG 30 2016

NOTE: "FAIR" INDICATES FEW OR NO CLOUDS BELOW 12,000 FEET WITH NO
SIGNIFICANT WEATHER AND/OR OBSTRUCTIONS TO VISIBILITY.

* THESE STATIONS ARE NOT UNDER NWS QUALITY CONTROL. THEY ALSO MAY NOT
  REPORT WEATHER SUCH AS PRECIPITATION OR FOG.

ILZ001-002-007-009-015-016-024-301100-
NORTHWEST ILLINOIS

CITY           SKY/WX    TMP DP  RH WIND       PRES   REMARKS
MOLINE         PTCLDY    71  69  93 E8        30.14S
STERLING*      CLOUDY    70  69  97 VRB5      30.17S
SAVANNA*       MOCLDY    69  68  96 CALM      30.16S
$$

ILZ003-004-008-010-011-017-018-301100-
NORTH CENTRAL ILLINOIS

CITY           SKY/WX    TMP DP  RH WIND       PRES   REMARKS
ROCKFORD       LGT RAIN  70  68  93 CALM      30.18R
FREEPORT*      DRIZZLE   67  67  99 E3        30.18S
ROCHELLE*      HVY RAIN  67  67  99 S5        30.18S
$$

ILZ005-006-012>014-019>023-301100-
NORTHEAST ILLINOIS

CITY           SKY/WX    TMP DP  RH WIND       PRES   REMARKS
CHICAGO-OHARE  CLOUDY    73  72  96 CALM      30.14S FOG
CHICAGO-MIDWAY CLOUDY    76  72  87 E5        30.14R FOG
AURORA         TSTM      71  68  90 SW6       30.16R
LANSING*       PTCLDY    71  71 100 CALM      30.15R FOG
JOLIET*        FOG       71  71  99 CALM      30.14S VSB 3/4
WAUKEGAN       CLOUDY    72  70  93 CALM      30.14S FOG
DUPAGE AIRPORT CLOUDY    71  68  90 W12       30.15R FOG
KANKAKEE*      CLEAR     71  70  98 CALM      30.15R FOG
WHEELING       LGT RAIN  72  70  93 CALM      30.15S FOG
MORRIS*        FOG       69  69  98 CALM      30.13S VSB 3/4
ROMEOVILLE*      N/A     71  71 100 S3        30.14R FOG
$$

LMZ740>746-301100-
SOUTHERN LAKE MICHIGAN

STATION/POSITION SKY/WX   TEMP    WIND        PRES    VSBY  WAVE
                          AIR SEA DIR/SP/G                  HT/PER
                          (F)     (DEG/KT/KT) (MB)    (MI)  (FT/S)
SOUTHERN BUOY              75 76   CALM  /  2 1020.2          0
WILMETTE HARBOR            72 73   CALM  /  2   N/A           1
HARRISON CRIB              75      20/  3/  4   N/A
BURNHAM HARBOR             73      CALM  /  4   N/A
CALUMET HARBOR             73      30/  2/  2 1019.9F
BURNS HARBOR               74     160/  3/  7 1021.0F
MICHIGAN CITY              74     150/  2/  2   N/A
MICHIGAN CITY 6N           74 74  320/  2/  2   N/A           0
ST. JOSEPH                 74 75  280/  6/ 10 1020.8F         0
$$

ILZ025>027-034>036-040-047-049-050-058-095>099-301100-
WEST-CENTRAL ILLINOIS

CITY           SKY/WX    TMP DP  RH WIND       PRES   REMARKS
QUINCY         PTCLDY    71  69  93 CALM      30.13S
GALESBURG*     CLOUDY    70  69  98 CALM      30.15R
MACOMB*        PTCLDY    70  70  99 CALM      30.16S FOG
JACKSONVILLE*  CLEAR     70  69  96 CALM      30.13S FOG
PITTSFIELD*    MOCLDY    71  71  99 CALM      30.14S
$$

ILZ028>032-037-038-041>044-048-051>054-059>061-301100-
CENTRAL ILLINOIS

CITY           SKY/WX    TMP DP  RH WIND       PRES   REMARKS
PONTIAC        PTCLDY    71  71 100 CALM      30.16R FOG
BLOOMINGTON    PTCLDY    72  71  97 CALM      30.16R FOG
DECATUR        CLEAR     69  67  93 CALM      30.14S FOG
PEORIA         CLOUDY    73  72  96 N9        30.16R
LACON*         TSTM      70  68  93 NW7G17    30.19R
LINCOLN*         N/A     70  70 100 CALM      30.14S FOG
SPRINGFIELD    CLEAR     72  69  90 CALM      30.13S FOG
TAYLORVILLE    CLEAR     70  70 100 CALM      30.13S FOG
$$

ILZ033-039-045-046-055>057-062-063-301100-
EAST-CENTRAL ILLINOIS

CITY           SKY/WX    TMP DP  RH WIND       PRES   REMARKS
CHAMPAIGN      CLEAR     71  69  93 E5        30.15R FOG
RANTOUL*       PTCLDY    73  72  96 CALM      30.15R FOG
MATTOON        CLEAR     71  69  93 CALM      30.13S FOG
PARIS*         CLEAR     68  68 100 CALM      30.15S FOG
$$

ILZ079-100>102-301100-
SOUTHWEST ILLINOIS

CITY           SKY/WX    TMP DP  RH WIND       PRES   REMARKS
ALTON          FOG       69  69  99 CALM      30.12S VSB 1/2
BELLEVILLE     CLEAR     71  71 100 CALM      30.11S FOG
CAHOKIA*       CLEAR     72  70  93 CALM      30.11F FOG
SPARTA*        CLEAR     72  71  98 CALM      30.12F
$$

ILZ064>066-069>071-074>076-080>082-084>086-088>090-092>094-301100-
SOUTH-CENTRAL ILLINOIS

CITY           SKY/WX    TMP DP  RH WIND       PRES   REMARKS
CARBONDALE     CLEAR     71  69  93 N3        30.11S FOG
EFFINGHAM*       N/A     69  69 100 CALM      30.14S FOG
MARION           N/A     70  70 100 CALM      30.12R FOG
MT. VERNON     CLEAR     70  64  83 CALM      30.13S
CENTRALIA*     FOG       68  68 100 SE3       30.12S VSB 1/4
SALEM*         CLEAR     70  68  95 CALM      30.13S FOG
METROPOLIS*    CLEAR     72  72  98 CALM      30.10R FOG
$$

ILZ067-068-072-073-078-083-087-091-301100-
SOUTHEAST ILLINOIS

CITY           SKY/WX    TMP DP  RH WIND       PRES   REMARKS
LAWRENCEVILLE  CLEAR     72  72 100 CALM      30.13S
FLORA*         CLEAR     72  70  95 CALM      30.12S
FAIRFIELD*       N/A     72  71  98 N3        30.11S
HARRISBURG*    CLEAR     71  71  99 CALM      30.11S
ROBINSON*      FOG       66  66 100 CALM      30.14S VSB 1/4
CARMI*         CLEAR     70  70 100 CALM      30.10S FOG
$$

ABBREVIATIONS USED IN REMARKS
   TC - TEMPERATURE IN CELSIUS
  WCI - WIND CHILL INDEX
   HX - HEAT INDEX
  VSB - VISIBILITY
$$





USA.gov is the U.S. government's official web portal to all federal, state and local government web resources and services.